Regional Weather Roundup
Issued by NWS

Home | Current Version | Previous Version | Text Only | Print | Product List | Glossary Off
Versions: 1 2 3 4 5 6 7 8 9 10 11 12 13 14 15 16 17 18 19 20 21 22 23 24 25 26 27 28 29 30 31 32 33 34 35 36 37 38 39 40 41 42 43 44 45 46 47 48 49 50

000
ASUS45 KTFX 301210
RWRMT
MONTANA REGIONAL WEATHER ROUNDUP
NATIONAL WEATHER SERVICE GREAT FALLS MT
600 AM MDT SAT MAY 30 2015

NOTE: "FAIR" INDICATES FEW OR NO CLOUDS BELOW 12000 FEET WITH NO
SIGNIFICANT WEATHER AND/OR OBSTRUCTIONS TO VISIBILITY.

MTZ001>007-043-301300-
WEST OF THE DIVIDE

CITY           SKY/WX    TMP DP  RH WIND       PRES   REMARKS
KALISPELL      RAIN      53  51  93 N6        29.99F
MISSOULA       CLOUDY    50  46  86 NW6       30.03R
BUTTE          PTCLDY    45  42  89 S3        30.11F
MULLAN PASS    CLOUDY    52  41  66 SW6       30.08R
DEER LODGE       N/A     48  45  87 CALM      30.09S
EUREKA           N/A     50  48  93 CALM        N/A  VSB 1/2
HAMILTON         N/A     52  45  76 SE7       30.01R
LIBBY            N/A     54  54 100 SW3       30.00F
PLAINS           N/A     55  51  86 N1        30.00S
RONAN            N/A     56  48  74 N12       30.04R
THOMPSON FALLS   N/A     55  53  93 W7        30.04R
$$

MTZ008-052>055-301300-
SOUTHWEST MONTANA

CITY           SKY/WX    TMP DP  RH WIND       PRES   REMARKS
BOZEMAN        MOCLDY    50  48  93 CALM      30.09F
DILLON         PTCLDY    48  43  82 S5        30.10F
W YELLOWSTONE  PTCLDY    34  34 100 CALM      30.22S
THREE FORKS      N/A     53  28  38 CALM      30.07F
$$

MTZ009-010-012-014-046-048-049-054-301300-
EAST SLOPES AND CENTRAL MONTANA

CITY           SKY/WX    TMP DP  RH WIND       PRES   REMARKS
CUT BANK       MOCLDY    44  40  85 E5        30.04S
GREAT FALLS    PTCLDY    48  45  89 E5        30.01F
MALMSTROM AFB  PTCLDY    45  45  99 E2        30.02F
HELENA         PTCLDY    51  47  86 CALM      30.05S
CONRAD           N/A     41  41 100 CALM      30.05S
$$

MTZ011-013-016-021-045-047-050-051-301300-
NORTH CENTRAL MONTANA

CITY           SKY/WX    TMP DP  RH WIND       PRES   REMARKS
HAVRE          PTCLDY    46  36  68 E14       30.04S
LEWISTOWN      CLOUDY    46  41  82 E8        30.06F
N BAR RANCH    FAIR      46  41  81 E5        30.11S
CHINOOK          N/A     45  36  70 E14G21    30.08R
FORT BENTON      N/A     48  37  66 NE8       30.04F
$$

MTZ017>020-022>027-061-062-301300-
NORTHEAST MONTANA

CITY           SKY/WX    TMP DP  RH WIND       PRES   REMARKS
GLASGOW        MOCLDY    44  34  67 E15       30.18F
JORDAN           N/A     47  37  68 E9        30.15S
SIDNEY         MOCLDY    41  34  75 CALM      30.30S
WOLF POINT     CLOUDY    42  35  76 NE10      30.24F
MALTA            N/A     47  35  63 NE8       30.10F
PLENTYWOOD       N/A     41  34  75 E16       30.29R
POPLAR           N/A     43  34  70 E10       30.26S
SCOBEY           N/A     41  30  65 E14       30.22S
$$

MTZ028>42-056>058-301300-
SOUTHCENTRAL AND SOUTHEAST MONTANA

CITY           SKY/WX    TMP DP  RH WIND       PRES   REMARKS
BAKER          FLURRIES  36  33  89 SE10      30.27S WCI  28
BILLINGS       MOCLDY    48  44  86 NW8       30.10F
LIVINGSTON     MOCLDY    49  46  90 S3        30.09F
MILES CITY     MOCLDY    47  37  68 SE12G23   30.18S
BIG TIMBER       N/A     48  46  93 CALM      30.11S
EKALAKA          N/A     40  34  79 SE15      30.18F
LAUREL           N/A     47  42  82 W2        30.07F
ROUNDUP          N/A     45  37  73 CALM      30.00F
$$

REGIONAL REPORTS...DAKOTAS

CITY           SKY/WX    TMP DP  RH WIND       PRES   REMARKS
WILLISTON      MOCLDY    42  35  76 SE13      30.32S
MINOT          PTCLDY    36  30  79 E13       30.40R WCI  27
DICKINSON      PTCLDY    34  30  85 E9        30.30S WCI  27
BEACH          FAIR      37  37 100 SE10      30.29R WCI  30
CROSBY         CLOUDY    39  32  75 SE18      30.35F WCI  30
WATFORD CITY   FAIR      37  36  93 SE14      30.31S WCI  29
BISMARCK       CLEAR     35  32  88 E6        30.40R WCI  30
GRAND FORKS    MOSUNNY   34  27  75 N6        30.40R WCI  29
FARGO          SUNNY     36  29  75 N12       30.36S WCI  28
BUFFALO SD       N/A     37  33  85 E8        30.22S WCI  31
RAPID CITY     CLEAR     36  34  92 SE3       30.30S
$$

REGIONAL REPORTS...WYOMING/IDAHO/WASHINGTON

CITY           SKY/WX    TMP DP  RH WIND       PRES   REMARKS
GILLETTE       PTCLDY    43  40  89 S15G24    30.20S
SHERIDAN       CLEAR     38  36  92 NW7       30.13S
BUFFALO WY     CLEAR     43  38  82 SW3       30.15F
CODY           PTCLDY    45  43  93 CALM      30.15S
YELLOWSTONE LA   N/A     32  30  92 NW3       30.29F
IDAHO FALLS    PTCLDY    44  42  93 N6        30.13S
SALMON           N/A     48  45  87 CALM      30.07S
BOISE          MOCLDY    69  42  37 SE9       29.90F
SPOKANE        CLOUDY    61  48  62 S5        29.91F
$$

REGIONAL REPORTS...ALBERTA

CITY           SKY/WX    TMP DP  RH WIND       PRES   REMARKS
EDMONTON       CLOUDY    50  32  50 E9        30.10F
CALGARY        MOCLDY    45  37  76 SE5       30.05S
LETHBRIDGE     MOCLDY    45  43  93 SE7       30.04S
MEDICINE HAT   CLOUDY    52  34  50 E8        30.06F
$$

REGIONAL REPORTS...SASKATCHEWAN

CITY           SKY/WX    TMP DP  RH WIND       PRES   REMARKS
SWIFT CURRENT  CLOUDY    43  28  56 SE14G21   30.18F
REGINA         MOCLDY    37  30  75 SE20      30.35S WCI  27
SASKATOON      MOCLDY    43  28  56 SE9       30.33S
$$



USA.gov is the U.S. government's official web portal to all federal, state and local government web resources and services.